Epoch = 2016 Apr. 2.0 TT T = 2016 Mar. 15.51741 TT Peri. = 351.89524 e = 0.6663194 Node = 180.53526 2000.0 q = 1.0085745 AU Incl. = 18.92012 a = 3.0225741 AU n = 0.18755932 P = 5.26 years
H = 19.0 G = 0.15